Lid_Strength_Index
5 5 5 4 4 3 3 3 2 2 2 2 2 1 1 1 1 1 1 1 1 1 1 1 1 1 0 0 0 2 0 0 0
7 5 5 5 4 6 3 3 2 2 2 2 2 2 1 1 1 1 1 1 1 1 2 0 1 2 2 1 1 1 0 1 1
6 5 6 5 3 4 4 2 2 2 2 2 2 1 1 1 1 1 1 1 1 1 1 1 1 1 2 2 1 1 0 1 1
6 7 5 5 4 4 3 2 2 2 2 2 2 2 2 1 1 1 1 1 1 2 1 1 1 1 1 1 1 1 1 1 1
6 5 5 4 4 3 3 3 3 2 2 2 2 1 1 1 1 2 2 2 1 1 1 1 1 1 1 1 1 1 1 1 1
6 6 5 5 4 4 4 3 3 2 2 2 2 1 2 2 2 2 2 1 1 1 1 1 1 1 1 1 1 1 1 1 1
6 6 5 5 5 4 4 3 3 3 3 3 3 3 3 3 2 2 2 1 1 1 1 1 1 1 1 1 1 1 1 1 1
6 6 5 5 5 4 4 3 3 3 3 3 2 2 2 2 2 1 1 1 1 1 1 1 1 1 1 1 1 1 1 1 1
7 6 5 5 4 4 4 3 3 3 2 2 2 2 3 2 2 2 2 2 1 1 1 1 1 1 1 1 1 1 1 1 2
7 6 5 5 4 4 4 3 3 3 3 2 2 2 2 2 2 2 2 2 2 2 2 1 1 1 1 1 1 2 1 1 2
6 5 5 4 4 4 3 2 3 2 2 2 2 2 2 2 2 2 2 2 2 2 2 2 2 2 1 1 1 2 2 1 2
5 4 4 4 3 3 2 2 2 2 3 3 3 3 3 2 2 2 2 2 2 2 2 2 2 1 1 1 1 2 3 3 2
4 3 3 4 3 3 3 2 2 2 3 3 3 2 2 2 2 2 2 2 2 2 2 2 1 1 1 1 1 2 3 3 2
4 4 4 3 3 3 3 3 3 3 3 3 2 1 2 2 2 2 2 2 2 2 2 2 2 2 1 1 1 1 3 3 2
5 4 4 3 3 4 4 3 3 4 4 3 3 2 2 2 2 1 1 2 2 2 2 2 2 2 2 1 1 2 3 4 4
4 4 4 3 4 4 4 4 4 5 5 4 4 3 2 2 1 1 2 2 2 2 2 3 3 3 3 2 2 1 3 4 4
4 4 4 4 4 5 5 4 4 4 4 3 4 4 4 3 3 2 2 3 3 3 3 3 3 3 3 3 2 2 2 2 3
5 5 4 5 5 5 5 5 5 4 4 4 5 4 4 4 4 4 4 4 3 3 3 3 3 2 2 3 3 2 3 4 3
6 6 6 6 6 6 6 5 5 4 3 4 4 4 4 5 5 4 4 4 4 4 5 5 6 7 6 3 4 5 6 8 8
5 6 6 6 6 5 5 4 4 4 4 3 4 5 5 5 5 5 5 5 6 6 5 5 6 7 7 7 7 8 9 9 9